owner,sensor,date,latitude,longitude,vertical_datum,direction_of_sea_water_velocity,sea_water_speed,upward_sea_water_velocity,qcFlag 
TABS,ioos:station:TABS:A:1,1995-06-21T00:00:00Z,29.5325,-93.8116,2.0,0.0,0.0,-99999.0,'11133222,11111222,99999999' 
TABS,ioos:station:TABS:A:1,1995-06-21T17:00:00Z,29.5325,-93.8116,2.0,217.7556803,35.04819111,-99999.0,'11111222,11111222,99999999' 
TABS,ioos:station:TABS:A:1,1995-06-21T17:30:00Z,29.5325,-93.8116,2.0,222.7307687,37.32914813,-99999.0,'11111222,11111222,99999999' 
TABS,ioos:station:TABS:A:1,1995-06-21T18:00:00Z,29.5325,-93.8116,2.0,225.3369782,36.03478597,-99999.0,'11111222,11111222,99999999' 
TABS,ioos:station:TABS:A:1,1995-06-21T18:30:00Z,29.5325,-93.8116,2.0,226.823614,33.1022975,-99999.0,'11111222,11111222,99999999' 
TABS,ioos:station:TABS:A:1,1995-06-21T19:00:00Z,29.5325,-93.8116,2.0,232.5261782,33.79387518,-99999.0,'11111222,11111222,99999999' 
TABS,ioos:station:TABS:A:1,1995-06-21T19:30:00Z,29.5325,-93.8116,2.0,252.6467353,29.97425062,-99999.0,'11111222,11111222,99999999' 
TABS,ioos:station:TABS:A:1,1995-06-21T20:00:00Z,29.5325,-93.8116,2.0,255.2560507,29.27385523,-99999.0,'11111222,11111222,99999999' 
TABS,ioos:station:TABS:A:1,1995-06-21T20:30:00Z,29.5325,-93.8116,2.0,251.0476731,31.19081435,-99999.0,'11111222,11111222,99999999' 
TABS,ioos:station:TABS:A:1,1995-06-21T21:00:00Z,29.5325,-93.8116,2.0,249.9790212,33.94107394,-99999.0,'11111222,11111222,99999999' 
TABS,ioos:station:TABS:A:1,1995-06-21T21:30:00Z,29.5325,-93.8116,2.0,244.3463801,33.7241753,-99999.0,'11111222,11111222,99999999' 
TABS,ioos:station:TABS:A:1,1995-06-21T22:00:00Z,29.5325,-93.8116,2.0,245.8473876,34.94942203,-99999.0,'11111222,11111222,99999999' 
TABS,ioos:station:TABS:A:1,1995-06-21T22:30:00Z,29.5325,-93.8116,2.0,250.1106708,33.27471262,-99999.0,'11111222,11111222,99999999' 
TABS,ioos:station:TABS:A:1,1995-06-21T23:00:00Z,29.5325,-93.8116,2.0,254.5633724,32.46095655,-99999.0,'11111222,11111222,99999999' 
TABS,ioos:station:TABS:A:1,1995-06-21T23:30:00Z,29.5325,-93.8116,2.0,256.9285467,34.26786979,-99999.0,'11111222,11111222,99999999' 
TABS,ioos:station:TABS:A:1,1995-06-22T00:00:00Z,29.5325,-93.8116,2.0,228.558425,37.36486317,-99999.0,'11111222,11111222,99999999' 
TABS,ioos:station:TABS:A:1,1995-06-22T00:30:00Z,29.5325,-93.8116,2.0,219.8658124,39.98465956,-99999.0,'11111222,11111222,99999999' 
TABS,ioos:station:TABS:A:1,1995-06-22T01:00:00Z,29.5325,-93.8116,2.0,219.7469001,41.47628841,-99999.0,'11111222,11111222,99999999' 
TABS,ioos:station:TABS:A:1,1995-06-22T01:30:00Z,29.5325,-93.8116,2.0,211.71612,43.08416182,-99999.0,'11111222,11111222,99999999' 
TABS,ioos:station:TABS:A:1,1995-06-22T02:00:00Z,29.5325,-93.8116,2.0,210.3699765,44.20613193,-99999.0,'11111222,11111222,99999999' 
TABS,ioos:station:TABS:A:1,1995-06-22T02:30:00Z,29.5325,-93.8116,2.0,209.8881063,46.05548176,-99999.0,'11111222,11111222,99999999' 
TABS,ioos:station:TABS:A:1,1995-06-22T03:00:00Z,29.5325,-93.8116,2.0,212.6651598,46.37480458,-99999.0,'11111222,11111222,99999999' 
TABS,ioos:station:TABS:A:1,1995-06-22T03:30:00Z,29.5325,-93.8116,2.0,215.1595067,48.11943163,-99999.0,'11111222,11111222,99999999' 
TABS,ioos:station:TABS:A:1,1995-06-22T04:00:00Z,29.5325,-93.8116,2.0,214.5460613,49.92304578,-99999.0,'11111222,11111222,99999999' 
TABS,ioos:station:TABS:A:1,1995-06-22T04:30:00Z,29.5325,-93.8116,2.0,211.32201,49.8796251,-99999.0,'11111222,11111222,99999999' 
TABS,ioos:station:TABS:A:1,1995-06-22T05:00:00Z,29.5325,-93.8116,2.0,210.0352971,50.6055827,-99999.0,'11111222,11111222,99999999' 
TABS,ioos:station:TABS:A:1,1995-06-22T05:30:00Z,29.5325,-93.8116,2.0,209.6125414,50.046908,-99999.0,'11111222,11111222,99999999' 
TABS,ioos:station:TABS:A:1,1995-06-22T06:00:00Z,29.5325,-93.8116,2.0,211.2492594,50.54297676,-99999.0,'11111222,11111222,99999999' 
TABS,ioos:station:TABS:A:1,1995-06-22T06:30:00Z,29.5325,-93.8116,2.0,210.418621,53.56314498,-99999.0,'11111222,11111222,99999999' 
TABS,ioos:station:TABS:A:1,1995-06-22T07:00:00Z,29.5325,-93.8116,2.0,208.5053124,54.94039315,-99999.0,'11111222,11111222,99999999' 
TABS,ioos:station:TABS:A:1,1995-06-22T07:30:00Z,29.5325,-93.8116,2.0,208.0379502,57.05648079,-99999.0,'11111222,11111222,99999999' 
TABS,ioos:station:TABS:A:1,1995-06-22T08:00:00Z,29.5325,-93.8116,2.0,201.9603022,58.1600043,-99999.0,'11111222,11111222,99999999' 
TABS,ioos:station:TABS:A:1,1995-06-22T08:30:00Z,29.5325,-93.8116,2.0,202.9696649,59.55188074,-99999.0,'11111222,11111222,99999999' 
TABS,ioos:station:TABS:A:1,1995-06-22T09:00:00Z,29.5325,-93.8116,2.0,202.0142009,60.4256808,-99999.0,'11111222,11111222,99999999' 
TABS,ioos:station:TABS:A:1,1995-06-22T09:30:00Z,29.5325,-93.8116,2.0,199.0735628,59.27425495,-99999.0,'11111222,11111222,99999999' 
TABS,ioos:station:TABS:A:1,1995-06-22T10:00:00Z,29.5325,-93.8116,2.0,196.4898479,55.62804778,-99999.0,'11111222,11111222,99999999' 
TABS,ioos:station:TABS:A:1,1995-06-22T10:30:00Z,29.5325,-93.8116,2.0,193.5181407,56.08380337,-99999.0,'11111222,11111222,99999999' 
TABS,ioos:station:TABS:A:1,1995-06-22T11:00:00Z,29.5325,-93.8116,2.0,194.385994,58.76262758,-99999.0,'11111222,11111222,99999999' 
TABS,ioos:station:TABS:A:1,1995-06-22T11:30:00Z,29.5325,-93.8116,2.0,190.8978741,56.75355319,-99999.0,'11111222,11111222,99999999' 
TABS,ioos:station:TABS:A:1,1995-06-22T12:00:00Z,29.5325,-93.8116,2.0,192.8800374,57.46595949,-99999.0,'11111222,11111222,99999999' 
TABS,ioos:station:TABS:A:1,1995-06-22T12:30:00Z,29.5325,-93.8116,2.0,192.4322195,56.76101919,-99999.0,'11111222,11111222,99999999' 
TABS,ioos:station:TABS:A:1,1995-06-22T13:00:00Z,29.5325,-93.8116,2.0,193.1252774,59.05275777,-99999.0,'11111222,11111222,99999999' 
TABS,ioos:station:TABS:A:1,1995-06-22T13:30:00Z,29.5325,-93.8116,2.0,193.446869,56.37553547,-99999.0,'11111222,11111222,99999999' 
TABS,ioos:station:TABS:A:1,1995-06-22T14:00:00Z,29.5325,-93.8116,2.0,193.5775837,54.56498603,-99999.0,'11111222,11111222,99999999' 
TABS,ioos:station:TABS:A:1,1995-06-22T14:30:00Z,29.5325,-93.8116,2.0,188.0839874,52.97645704,-99999.0,'11111222,11111222,99999999' 
TABS,ioos:station:TABS:A:1,1995-06-22T15:00:00Z,29.5325,-93.8116,2.0,188.9033915,50.07338015,-99999.0,'11111222,11111222,99999999' 
TABS,ioos:station:TABS:A:1,1995-06-22T15:30:00Z,29.5325,-93.8116,2.0,190.3446228,44.82870174,-99999.0,'11111222,11111222,99999999' 
TABS,ioos:station:TABS:A:1,1995-06-22T16:00:00Z,29.5325,-93.8116,2.0,196.0430326,47.43753999,-99999.0,'11111222,11111222,99999999' 
TABS,ioos:station:TABS:A:1,1995-06-22T16:30:00Z,29.5325,-93.8116,2.0,194.0360002,43.00399168,-99999.0,'11111222,11111222,99999999' 
TABS,ioos:station:TABS:A:1,1995-06-22T17:00:00Z,29.5325,-93.8116,2.0,195.1804748,43.2284721,-99999.0,'11111222,11111222,99999999' 
TABS,ioos:station:TABS:A:1,1995-06-22T17:30:00Z,29.5325,-93.8116,2.0,200.2443157,38.75406688,-99999.0,'11111222,11111222,99999999' 
TABS,ioos:station:TABS:A:1,1995-06-22T18:00:00Z,29.5325,-93.8116,2.0,201.6310992,38.791927,-99999.0,'11111222,11111222,99999999' 
TABS,ioos:station:TABS:A:1,1995-06-22T18:30:00Z,29.5325,-93.8116,2.0,203.6474469,39.3655649,-99999.0,'11111222,11111222,99999999' 
TABS,ioos:station:TABS:A:1,1995-06-22T19:00:00Z,29.5325,-93.8116,2.0,204.2229098,45.74791033,-99999.0,'11111222,11111222,99999999' 
TABS,ioos:station:TABS:A:1,1995-06-22T19:30:00Z,29.5325,-93.8116,2.0,203.4710078,49.38622176,-99999.0,'11111222,11111222,99999999' 
TABS,ioos:station:TABS:A:1,1995-06-22T20:00:00Z,29.5325,-93.8116,2.0,209.3797835,46.16790444,-99999.0,'11111222,11111222,99999999' 
TABS,ioos:station:TABS:A:1,1995-06-22T20:30:00Z,29.5325,-93.8116,2.0,206.2389301,47.18179734,-99999.0,'11111222,11111222,99999999' 
TABS,ioos:station:TABS:A:1,1995-06-22T21:00:00Z,29.5325,-93.8116,2.0,207.3662913,47.31535586,-99999.0,'11111222,11111222,99999999' 
TABS,ioos:station:TABS:A:1,1995-06-22T21:30:00Z,29.5325,-93.8116,2.0,208.8739698,46.28394322,-99999.0,'11111222,11111222,99999999' 
TABS,ioos:station:TABS:A:1,1995-06-22T22:00:00Z,29.5325,-93.8116,2.0,204.9194408,50.93179459,-99999.0,'11111222,11111222,99999999' 
TABS,ioos:station:TABS:A:1,1995-06-22T22:30:00Z,29.5325,-93.8116,2.0,201.3578142,49.91825818,-99999.0,'11111222,11111222,99999999' 
TABS,ioos:station:TABS:A:1,1995-06-22T23:00:00Z,29.5325,-93.8116,2.0,207.3605745,47.97723002,-99999.0,'11111222,11111222,99999999' 
TABS,ioos:station:TABS:A:1,1995-06-22T23:30:00Z,29.5325,-93.8116,2.0,197.2289588,49.29184922,-99999.0,'11111222,11111222,99999999' 
TABS,ioos:station:TABS:A:1,1995-06-23T00:00:00Z,29.5325,-93.8116,2.0,201.2331065,50.19777386,-99999.0,'11111222,11111222,99999999' 
TABS,ioos:station:TABS:A:1,1995-06-23T00:30:00Z,29.5325,-93.8116,2.0,196.0899119,48.38541309,-99999.0,'11111222,11111222,99999999' 
TABS,ioos:station:TABS:A:1,1995-06-23T01:00:00Z,29.5325,-93.8116,2.0,196.8054855,46.38090232,-99999.0,'11111222,11111222,99999999' 
TABS,ioos:station:TABS:A:1,1995-06-23T01:30:00Z,29.5325,-93.8116,2.0,187.7996051,43.91630335,-99999.0,'11111222,11111222,99999999' 
TABS,ioos:station:TABS:A:1,1995-06-23T02:00:00Z,29.5325,-93.8116,2.0,183.8685479,39.72051485,-99999.0,'11111222,11111222,99999999' 
TABS,ioos:station:TABS:A:1,1995-06-23T02:30:00Z,29.5325,-93.8116,2.0,139.0106399,33.15966526,-99999.0,'11111222,11111222,99999999' 
TABS,ioos:station:TABS:A:1,1995-06-23T03:00:00Z,29.5325,-93.8116,2.0,168.3640556,31.03784142,-99999.0,'11111222,11111222,99999999' 
TABS,ioos:station:TABS:A:1,1995-06-23T03:30:00Z,29.5325,-93.8116,2.0,130.3145191,25.7966083,-99999.0,'11111222,11111222,99999999' 
TABS,ioos:station:TABS:A:1,1995-06-23T04:00:00Z,29.5325,-93.8116,2.0,169.0559446,26.70567917,-99999.0,'11111222,11111222,99999999' 
TABS,ioos:station:TABS:A:1,1995-06-23T04:30:00Z,29.5325,-93.8116,2.0,180.6783482,25.33177649,-99999.0,'11111222,11111222,99999999' 
TABS,ioos:station:TABS:A:1,1995-06-23T05:00:00Z,29.5325,-93.8116,2.0,170.8919466,24.44824125,-99999.0,'11111222,11111222,99999999' 
TABS,ioos:station:TABS:A:1,1995-06-23T05:30:00Z,29.5325,-93.8116,2.0,160.3005863,21.21139788,-99999.0,'11111222,11111222,99999999' 
TABS,ioos:station:TABS:A:1,1995-06-23T06:00:00Z,29.5325,-93.8116,2.0,182.0586625,16.70078142,-99999.0,'11111222,11111222,99999999' 
TABS,ioos:station:TABS:A:1,1995-06-23T06:30:00Z,29.5325,-93.8116,2.0,199.3801523,17.05648557,-99999.0,'11111222,11111222,99999999' 
TABS,ioos:station:TABS:A:1,1995-06-23T07:00:00Z,29.5325,-93.8116,2.0,201.258837,17.26486895,-99999.0,'11111222,11111222,99999999' 
TABS,ioos:station:TABS:A:1,1995-06-23T07:30:00Z,29.5325,-93.8116,2.0,150.4230819,12.6826062,-99999.0,'11111222,11111222,99999999' 
TABS,ioos:station:TABS:A:1,1995-06-23T08:00:00Z,29.5325,-93.8116,2.0,194.0234354,11.05962477,-99999.0,'11111222,11111222,99999999' 
TABS,ioos:station:TABS:A:1,1995-06-23T08:30:00Z,29.5325,-93.8116,2.0,200.568949,10.18960254,-99999.0,'11111222,11111222,99999999' 
TABS,ioos:station:TABS:A:1,1995-06-23T09:00:00Z,29.5325,-93.8116,2.0,204.8923881,9.194155752,-99999.0,'11133222,11111222,99999999' 
TABS,ioos:station:TABS:A:1,1995-06-23T09:30:00Z,29.5325,-93.8116,2.0,205.6754334,8.931931482,-99999.0,'11133222,11111222,99999999' 
TABS,ioos:station:TABS:A:1,1995-06-23T10:00:00Z,29.5325,-93.8116,2.0,173.9486452,5.691713275,-99999.0,'11133222,11111222,99999999' 
TABS,ioos:station:TABS:A:1,1995-06-23T10:30:00Z,29.5325,-93.8116,2.0,187.7259581,6.620098187,-99999.0,'11133222,11111222,99999999' 
TABS,ioos:station:TABS:A:1,1995-06-23T11:00:00Z,29.5325,-93.8116,2.0,200.8561018,13.39788416,-99999.0,'11111222,11111222,99999999' 
TABS,ioos:station:TABS:A:1,1995-06-23T11:30:00Z,29.5325,-93.8116,2.0,209.1265235,20.8117587,-99999.0,'11111222,11111222,99999999' 
TABS,ioos:station:TABS:A:1,1995-06-23T12:00:00Z,29.5325,-93.8116,2.0,212.3639032,25.05142112,-99999.0,'11111222,11111222,99999999' 
TABS,ioos:station:TABS:A:1,1995-06-23T12:30:00Z,29.5325,-93.8116,2.0,213.1136042,24.54672483,-99999.0,'11111222,11111222,99999999' 
TABS,ioos:station:TABS:A:1,1995-06-23T13:00:00Z,29.5325,-93.8116,2.0,211.4629249,23.41216137,-99999.0,'11111222,11111222,99999999' 
TABS,ioos:station:TABS:A:1,1995-06-23T13:30:00Z,29.5325,-93.8116,2.0,217.5238242,25.92368994,-99999.0,'11111222,11111222,99999999' 
TABS,ioos:station:TABS:A:1,1995-06-23T14:00:00Z,29.5325,-93.8116,2.0,215.3887515,27.78327914,-99999.0,'11111222,11111222,99999999' 
TABS,ioos:station:TABS:A:1,1995-06-23T14:30:00Z,29.5325,-93.8116,2.0,208.0333233,26.00059422,-99999.0,'11111222,11111222,99999999' 
TABS,ioos:station:TABS:A:1,1995-06-23T15:00:00Z,29.5325,-93.8116,2.0,217.6147276,27.83635393,-99999.0,'11111222,11111222,99999999' 
TABS,ioos:station:TABS:A:1,1995-06-23T15:30:00Z,29.5325,-93.8116,2.0,211.4020081,26.88833576,-99999.0,'11111222,11111222,99999999' 
TABS,ioos:station:TABS:A:1,1995-06-23T16:00:00Z,29.5325,-93.8116,2.0,208.3821118,29.47278406,-99999.0,'11111222,11111222,99999999' 
TABS,ioos:station:TABS:A:1,1995-06-23T16:30:00Z,29.5325,-93.8116,2.0,209.3287456,30.41907954,-99999.0,'11111222,11111222,99999999' 
TABS,ioos:station:TABS:A:1,1995-06-23T17:00:00Z,29.5325,-93.8116,2.0,201.7941689,30.4893178,-99999.0,'11111222,11111222,99999999' 
TABS,ioos:station:TABS:A:1,1995-06-23T17:30:00Z,29.5325,-93.8116,2.0,182.381563,28.63473765,-99999.0,'11111222,11111222,99999999' 
TABS,ioos:station:TABS:A:1,1995-06-23T18:00:00Z,29.5325,-93.8116,2.0,170.8995359,22.63490446,-99999.0,'11111222,11111222,99999999' 
TABS,ioos:station:TABS:A:1,1995-06-23T18:30:00Z,29.5325,-93.8116,2.0,150.1566483,20.95942032,-99999.0,'11111222,11111222,99999999' 
TABS,ioos:station:TABS:A:1,1995-06-23T19:00:00Z,29.5325,-93.8116,2.0,149.9750862,15.48840211,-99999.0,'11111222,11111222,99999999' 
TABS,ioos:station:TABS:A:1,1995-06-23T19:30:00Z,29.5325,-93.8116,2.0,88.65842683,12.8135124,-99999.0,'11111222,11111222,99999999' 
TABS,ioos:station:TABS:A:1,1995-06-23T20:00:00Z,29.5325,-93.8116,2.0,98.36749488,10.23899409,-99999.0,'11111222,11111222,99999999' 
TABS,ioos:station:TABS:A:1,1995-06-23T20:30:00Z,29.5325,-93.8116,2.0,113.9756393,8.810158909,-99999.0,'11133222,11111222,99999999' 
TABS,ioos:station:TABS:A:1,1995-06-23T21:00:00Z,29.5325,-93.8116,2.0,119.3291626,5.471316112,-99999.0,'11133222,11111222,99999999' 
TABS,ioos:station:TABS:A:1,1995-06-23T21:30:00Z,29.5325,-93.8116,2.0,164.0423432,6.510890876,-99999.0,'11133222,11111222,99999999' 
TABS,ioos:station:TABS:A:1,1995-06-23T22:00:00Z,29.5325,-93.8116,2.0,161.5648838,4.711793714,-99999.0,'11133222,11111222,99999999' 
TABS,ioos:station:TABS:A:1,1995-06-23T22:30:00Z,29.5325,-93.8116,2.0,177.256091,6.267184376,-99999.0,'11133222,11111222,99999999' 
TABS,ioos:station:TABS:A:1,1995-06-23T23:00:00Z,29.5325,-93.8116,2.0,197.232865,9.046104134,-99999.0,'11133222,11111222,99999999' 
TABS,ioos:station:TABS:A:1,1995-06-23T23:30:00Z,29.5325,-93.8116,2.0,199.8326476,11.40656828,-99999.0,'11111222,11111222,99999999' 
TABS,ioos:station:TABS:A:1,1995-06-24T00:00:00Z,29.5325,-93.8116,2.0,241.480034,15.60341629,-99999.0,'11111222,11111222,99999999' 
TABS,ioos:station:TABS:A:1,1995-06-24T00:30:00Z,29.5325,-93.8116,2.0,245.761232,19.6085925,-99999.0,'11111222,11111222,99999999' 
TABS,ioos:station:TABS:A:1,1995-06-24T01:00:00Z,29.5325,-93.8116,2.0,293.7137322,21.48391259,-99999.0,'11111222,11111222,99999999' 
TABS,ioos:station:TABS:A:1,1995-06-24T01:30:00Z,29.5325,-93.8116,2.0,156.8848423,24.30090739,-99999.0,'11111222,11111222,99999999' 
TABS,ioos:station:TABS:A:1,1995-06-24T02:00:00Z,29.5325,-93.8116,2.0,164.67563,22.55180924,-99999.0,'11111222,11111222,99999999' 
TABS,ioos:station:TABS:A:1,1995-06-24T02:30:00Z,29.5325,-93.8116,2.0,205.552792,22.7890873,-99999.0,'11111222,11111222,99999999' 
TABS,ioos:station:TABS:A:1,1995-06-24T03:00:00Z,29.5325,-93.8116,2.0,191.2983184,19.75281752,-99999.0,'11111222,11111222,99999999' 
TABS,ioos:station:TABS:A:1,1995-06-24T03:30:00Z,29.5325,-93.8116,2.0,162.8111633,17.1562525,-99999.0,'11111222,11111222,99999999' 
TABS,ioos:station:TABS:A:1,1995-06-24T04:00:00Z,29.5325,-93.8116,2.0,192.7033366,21.69097739,-99999.0,'11111222,11111222,99999999' 
TABS,ioos:station:TABS:A:1,1995-06-24T04:30:00Z,29.5325,-93.8116,2.0,205.9646864,25.19292361,-99999.0,'11111222,11111222,99999999' 
TABS,ioos:station:TABS:A:1,1995-06-24T05:00:00Z,29.5325,-93.8116,2.0,204.0390226,21.2095851,-99999.0,'11111222,11111222,99999999' 
TABS,ioos:station:TABS:A:1,1995-06-24T05:30:00Z,29.5325,-93.8116,2.0,205.3795206,19.45795467,-99999.0,'11111222,11111222,99999999' 
TABS,ioos:station:TABS:A:1,1995-06-24T06:00:00Z,29.5325,-93.8116,2.0,224.3365699,18.32943534,-99999.0,'11111222,11111222,99999999' 
TABS,ioos:station:TABS:A:1,1995-06-24T06:30:00Z,29.5325,-93.8116,2.0,233.6499852,19.60480808,-99999.0,'11111222,11111222,99999999' 
TABS,ioos:station:TABS:A:1,1995-06-24T07:00:00Z,29.5325,-93.8116,2.0,242.4681197,23.86224005,-99999.0,'11111222,11111222,99999999' 
TABS,ioos:station:TABS:A:1,1995-06-24T07:30:00Z,29.5325,-93.8116,2.0,268.4821685,22.65794563,-99999.0,'11111222,11111222,99999999' 
TABS,ioos:station:TABS:A:1,1995-06-24T08:00:00Z,29.5325,-93.8116,2.0,255.2560507,29.27385523,-99999.0,'11111222,11111222,99999999' 
TABS,ioos:station:TABS:A:1,1995-06-24T08:30:00Z,29.5325,-93.8116,2.0,264.4009849,15.272855,-99999.0,'11111222,11111222,99999999' 
TABS,ioos:station:TABS:A:1,1995-06-24T09:00:00Z,29.5325,-93.8116,2.0,254.9417318,16.05113392,-99999.0,'11111222,11111222,99999999' 
TABS,ioos:station:TABS:A:1,1995-06-24T09:30:00Z,29.5325,-93.8116,2.0,240.7625318,17.07529209,-99999.0,'11111222,11111222,99999999' 
TABS,ioos:station:TABS:A:1,1995-06-24T10:00:00Z,29.5325,-93.8116,2.0,240.8312408,14.6703306,-99999.0,'11111222,11111222,99999999' 
TABS,ioos:station:TABS:A:1,1995-06-24T10:30:00Z,29.5325,-93.8116,2.0,247.5669682,14.83238686,-99999.0,'11111222,11111222,99999999' 
TABS,ioos:station:TABS:A:1,1995-06-24T11:00:00Z,29.5325,-93.8116,2.0,253.6710191,12.73360907,-99999.0,'11111222,11111222,99999999' 
TABS,ioos:station:TABS:A:1,1995-06-24T11:30:00Z,29.5325,-93.8116,2.0,259.7101412,13.32428234,-99999.0,'11111222,11111222,99999999' 
TABS,ioos:station:TABS:A:1,1995-06-24T12:00:00Z,29.5325,-93.8116,2.0,246.7915709,15.88545246,-99999.0,'11111222,11111222,99999999' 
TABS,ioos:station:TABS:A:1,1995-06-24T12:30:00Z,29.5325,-93.8116,2.0,239.2449776,14.56890181,-99999.0,'11111222,11111222,99999999' 
TABS,ioos:station:TABS:A:1,1995-06-24T13:00:00Z,29.5325,-93.8116,2.0,255.9633684,12.28685476,-99999.0,'11111222,11111222,99999999' 
TABS,ioos:station:TABS:A:1,1995-06-24T13:30:00Z,29.5325,-93.8116,2.0,267.5473026,14.02284208,-99999.0,'11111222,11111222,99999999' 
TABS,ioos:station:TABS:A:1,1995-06-24T14:00:00Z,29.5325,-93.8116,2.0,278.757678,11.75706171,-99999.0,'11111222,11111222,99999999' 
TABS,ioos:station:TABS:A:1,1995-06-24T14:30:00Z,29.5325,-93.8116,2.0,279.8485672,13.91504581,-99999.0,'11111222,11111222,99999999' 
TABS,ioos:station:TABS:A:1,1995-06-24T15:00:00Z,29.5325,-93.8116,2.0,265.6896886,15.83477818,-99999.0,'11111222,11111222,99999999' 
TABS,ioos:station:TABS:A:1,1995-06-24T15:30:00Z,29.5325,-93.8116,2.0,286.8103541,13.38181602,-99999.0,'11111222,11111222,99999999' 
TABS,ioos:station:TABS:A:1,1995-06-24T16:00:00Z,29.5325,-93.8116,2.0,278.6680369,13.86838851,-99999.0,'11111222,11111222,99999999' 
TABS,ioos:station:TABS:A:1,1995-06-24T16:30:00Z,29.5325,-93.8116,2.0,290.4239598,13.66927211,-99999.0,'11111222,11111222,99999999' 
TABS,ioos:station:TABS:A:1,1995-06-24T17:00:00Z,29.5325,-93.8116,2.0,282.9190276,18.65211248,-99999.0,'11111222,11111222,99999999' 
TABS,ioos:station:TABS:A:1,1995-06-24T17:30:00Z,29.5325,-93.8116,2.0,273.5617801,14.32766904,-99999.0,'11111222,11111222,99999999' 
TABS,ioos:station:TABS:A:1,1995-06-24T18:00:00Z,29.5325,-93.8116,2.0,244.8075916,16.79769329,-99999.0,'11111222,11111222,99999999' 
TABS,ioos:station:TABS:A:1,1995-06-24T18:30:00Z,29.5325,-93.8116,2.0,224.9996843,17.28168973,-99999.0,'11111222,11111222,99999999' 
TABS,ioos:station:TABS:A:1,1995-06-24T19:00:00Z,29.5325,-93.8116,2.0,219.9116947,21.36811176,-99999.0,'11111222,11111222,99999999' 
TABS,ioos:station:TABS:A:1,1995-06-24T19:30:00Z,29.5325,-93.8116,2.0,199.8076969,23.75552567,-99999.0,'11111222,11111222,99999999' 
TABS,ioos:station:TABS:A:1,1995-06-24T20:00:00Z,29.5325,-93.8116,2.0,124.84653,20.33667869,-99999.0,'11111222,11111222,99999999' 
TABS,ioos:station:TABS:A:1,1995-06-24T20:30:00Z,29.5325,-93.8116,2.0,138.5799611,20.2698816,-99999.0,'11111222,11111222,99999999' 
TABS,ioos:station:TABS:A:1,1995-06-24T21:00:00Z,29.5325,-93.8116,2.0,133.7463608,19.39350922,-99999.0,'11111222,11111222,99999999' 
TABS,ioos:station:TABS:A:1,1995-06-24T21:30:00Z,29.5325,-93.8116,2.0,128.0480804,17.40968121,-99999.0,'11111222,11111222,99999999' 
TABS,ioos:station:TABS:A:1,1995-06-24T22:00:00Z,29.5325,-93.8116,2.0,128.664928,17.17442867,-99999.0,'11111222,11111222,99999999' 
TABS,ioos:station:TABS:A:1,1995-06-24T22:30:00Z,29.5325,-93.8116,2.0,150.6230853,16.41013406,-99999.0,'11111222,11111222,99999999' 
TABS,ioos:station:TABS:A:1,1995-06-24T23:00:00Z,29.5325,-93.8116,2.0,197.984149,24.12892455,-99999.0,'11111222,11111222,99999999' 
TABS,ioos:station:TABS:A:1,1995-06-24T23:30:00Z,29.5325,-93.8116,2.0,235.3032247,28.2663351,-99999.0,'11111222,11111222,99999999' 
TABS,ioos:station:TABS:A:1,1995-06-25T00:00:00Z,29.5325,-93.8116,2.0,257.3379029,29.92780647,-99999.0,'11111222,11111222,99999999' 
TABS,ioos:station:TABS:A:1,1995-06-25T00:30:00Z,29.5325,-93.8116,2.0,255.1353878,30.21096655,-99999.0,'11111222,11111222,99999999' 
TABS,ioos:station:TABS:A:1,1995-06-25T01:00:00Z,29.5325,-93.8116,2.0,266.7869199,31.94019724,-99999.0,'11111222,11111222,99999999' 
TABS,ioos:station:TABS:A:1,1995-06-25T01:30:00Z,29.5325,-93.8116,2.0,269.5066548,34.87129048,-99999.0,'11111222,11111222,99999999' 
TABS,ioos:station:TABS:A:1,1995-06-25T02:00:00Z,29.5325,-93.8116,2.0,285.8735168,35.94042014,-99999.0,'11111222,11111222,99999999' 
TABS,ioos:station:TABS:A:1,1995-06-25T02:30:00Z,29.5325,-93.8116,2.0,268.3226527,30.41302517,-99999.0,'11111222,11111222,99999999' 
TABS,ioos:station:TABS:A:1,1995-06-25T03:00:00Z,29.5325,-93.8116,2.0,287.5002478,34.68531822,-99999.0,'11111222,11111222,99999999' 
TABS,ioos:station:TABS:A:1,1995-06-25T03:30:00Z,29.5325,-93.8116,2.0,305.9295852,36.06085967,-99999.0,'11111222,11111222,99999999' 
TABS,ioos:station:TABS:A:1,1995-06-25T04:00:00Z,29.5325,-93.8116,2.0,304.9155996,38.52441563,-99999.0,'11111222,11111222,99999999' 
TABS,ioos:station:TABS:A:1,1995-06-25T04:30:00Z,29.5325,-93.8116,2.0,318.9390456,36.75028843,-99999.0,'11111222,11111222,99999999' 
TABS,ioos:station:TABS:A:1,1995-06-25T05:00:00Z,29.5325,-93.8116,2.0,315.0003157,34.56337946,-99999.0,'11111222,11111222,99999999' 
TABS,ioos:station:TABS:A:1,1995-06-25T05:30:00Z,29.5325,-93.8116,2.0,298.3314477,34.53682238,-99999.0,'11111222,11111222,99999999' 
TABS,ioos:station:TABS:A:1,1995-06-25T06:00:00Z,29.5325,-93.8116,2.0,281.8654338,36.23415654,-99999.0,'11111222,11111222,99999999' 
TABS,ioos:station:TABS:A:1,1995-06-25T06:30:00Z,29.5325,-93.8116,2.0,282.4645824,31.73803081,-99999.0,'11111222,11111222,99999999' 
TABS,ioos:station:TABS:A:1,1995-06-25T07:00:00Z,29.5325,-93.8116,2.0,282.5291993,27.47424248,-99999.0,'11111222,11111222,99999999' 
TABS,ioos:station:TABS:A:1,1995-06-25T07:30:00Z,29.5325,-93.8116,2.0,285.360922,28.12466711,-99999.0,'11111222,11111222,99999999' 
TABS,ioos:station:TABS:A:1,1995-06-25T08:00:00Z,29.5325,-93.8116,2.0,306.5130672,28.5545548,-99999.0,'11111222,11111222,99999999' 
TABS,ioos:station:TABS:A:1,1995-06-25T08:30:00Z,29.5325,-93.8116,2.0,311.134514,31.25452287,-99999.0,'11111222,11111222,99999999' 
TABS,ioos:station:TABS:A:1,1995-06-25T09:00:00Z,29.5325,-93.8116,2.0,331.8421711,33.46003736,-99999.0,'11111222,11111222,99999999' 
TABS,ioos:station:TABS:A:1,1995-06-25T09:30:00Z,29.5325,-93.8116,2.0,330.3324964,29.49672694,-99999.0,'11111222,11111222,99999999' 
TABS,ioos:station:TABS:A:1,1995-06-25T10:00:00Z,29.5325,-93.8116,2.0,326.483407,27.52712299,-99999.0,'11111222,11111222,99999999' 
TABS,ioos:station:TABS:A:1,1995-06-25T10:30:00Z,29.5325,-93.8116,2.0,323.9206949,25.81045525,-99999.0,'11111222,11111222,99999999' 